Location: Newark
(41.8083°N, 72.2500°W)
Time: 03:54:26
(UTC+00:00)

Vanguard 3 - Visible Passes

Search period start: 28 November 2021 00:00
Search period end: 08 December 2021 00:00
Orbit: 509 x 3260 km, 33.3° (Epoch: 27 November)

Date Brightness Start Highest point End Pass type
(mag) Time Alt. Az. Time Alt. Az. Time Alt. Az.
28 Nov 11.2 07:07:56 11° S 07:19:50 21° SE 07:31:09 10° E visible
28 Nov 10.5 09:16:48 10° SW 09:34:18 43° SSE 09:46:56 10° E visible
29 Nov 11.5 05:59:28 11° SSE 06:04:04 12° SE 06:10:05 10° ESE visible
29 Nov 10.8 08:04:08 15° SSW 08:18:00 34° SSE 08:31:29 10° E visible
29 Nov 10.2 10:14:40 10° SW 10:32:51 54° SSE 10:44:56 10° E visible
30 Nov 11.1 06:55:18 21° SSE 07:01:51 25° SE 07:14:41 10° E visible
30 Nov 10.4 08:59:57 14° SW 09:16:28 47° SSE 09:30:12 10° E visible
30 Nov 10.0 11:13:32 10° WSW 11:31:25 60° S 11:42:31 10° ESE visible
01 Dec 11.3 05:46:12 15° SE 05:46:12 15° SE 05:55:00 10° ESE visible
01 Dec 10.7 07:50:49 27° S 08:00:00 38° SSE 08:14:39 10° E visible
01 Dec 10.1 09:56:15 10° WSW 10:15:08 58° SSE 10:28:13 10° E visible
02 Dec 10.9 06:41:29 28° SSE 06:43:44 28° SE 06:57:53 10° E visible
02 Dec 10.3 08:46:05 25° SW 08:58:30 51° SSE 09:13:18 10° E visible
02 Dec 10.0 10:55:11 10° WSW 11:13:49 62° S 11:25:52 10° ESE visible
03 Dec 11.3 05:31:58 17° ESE 05:31:58 17° ESE 05:38:49 10° E visible
03 Dec 10.5 07:36:32 37° S 07:41:52 42° SSE 07:57:37 10° E visible
03 Dec 10.1 09:41:08 17° WSW 09:57:18 60° S 10:11:22 10° E visible
04 Dec 10.8 06:26:52 31° SE 06:26:52 31° SE 06:40:48 10° E visible
04 Dec 10.3 08:31:25 36° SW 08:40:28 54° SSE 08:56:16 10° E visible
04 Dec 10.0 10:36:56 10° WSW 10:56:06 63° S 11:09:05 10° ESE visible
05 Dec 11.3 05:17:03 16° ESE 05:17:03 16° ESE 05:22:03 10° E visible
05 Dec 10.4 07:21:36 44° SSE 07:23:41 45° SSE 07:40:23 10° E visible
05 Dec 10.1 09:26:10 26° WSW 09:39:21 63° S 09:54:25 10° E visible
06 Dec 10.8 06:11:40 32° ESE 06:11:40 32° ESE 06:23:27 10° E visible
06 Dec 10.2 08:16:14 46° SSW 08:22:19 57° SSE 08:39:05 10° E visible
06 Dec 10.1 10:20:47 15° WSW 10:38:16 64° S 10:52:12 10° ESE visible
07 Dec 11.4 05:01:40 15° E 05:01:40 15° E 05:04:53 10° E visible
07 Dec 10.3 07:06:13 48° SSE 07:06:13 48° SSE 07:23:00 10° E visible
07 Dec 10.1 09:10:46 35° WSW 09:21:19 64° S 09:37:20 10° E visible
07 Dec 10.1 11:18:09 10° W 11:36:52 58° SSW 11:49:31 10° ESE visible
